Terminal Aerodrome Forecast
Issued by NWS

Home | Current Version | Previous Version | Graphics & Text | Print | Product List | Glossary On
Versions: 1 2 3 4 5 6 7 8 9 10 11 12 13 14 15 16 17 18
000
FTUS42 KMHX 180000 AAA
TAFPGV
TAF AMD
KPGV 180007Z 1800/1824 07010G15KT P6SM SCT250
     FM180200 05010KT P6SM SKC
     FM180900 02010KT P6SM OVC050
     FM181500 05008KT P6SM OVC030
      AMD LTD TO CLD VIS AND WIND=

USA.gov is the U.S. government's official web portal to all federal, state and local government web resources and services.